Regional Weather Roundup
Issued by NWS

Home | Current Version | Previous Version | Text Only | Print | Product List | Glossary On
Versions: 1 2 3 4 5 6 7 8 9 10 11 12 13 14 15 16 17 18 19 20 21 22 23 24 25 26 27 28 29 30 31 32 33 34 35 36 37 38 39 40 41 42 43 44 45 46 47 48 49
000
ASUS42 KKEY 271010
RWRKEY

FLORIDA REGIONAL WEATHER ROUNDUP FOR THE FLORIDA KEYS
NATIONAL WEATHER SERVICE KEY WEST FLORIDA
500 AM EST TUE JAN 27 2015

...SOUTH FLORIDA AND THE KEYS...

CITY           SKY/WX    TMP DP  RH WIND       PRES   REMARKS
FORT MYERS     CLEAR     51  48  89 CALM      30.00R
SW REGIONAL AP CLEAR     52  47  83 NW3       30.01R
NAPLES         CLEAR     58  50  75 N5        30.00R
MIAMI          CLEAR     56  48  74 NW6       29.99S
WEST KENDALL   CLEAR     52  48  86 NW8       29.99F
HOMESTEAD      CLEAR     53  48  85 W3        29.99S
MARATHON       CLEAR     65  53  65 NW8G18    29.99F
BOCA CHICA NAS PTCLDY    66  52  60 NW13      30.01S
KEY WEST INTL  MOCLDY    65  54  67 NW14      30.01F

...INTERNATIONAL WEATHER...

CITY           SKY/WX    TMP DP  RH WIND       PRES   REMARKS
NASSAU BAHAMAS PTCLDY    66  50  55 NW21      29.91F
CANCUN MEXICO  CLEAR     55  55 100 W5        30.10S
COZUMEL MEXICO CLEAR     64  57  77 NW14      30.11S

ADJACENT COASTAL WATERS...

STATION/POSITION TIME  SKY/WX   TEMP    WIND        PRES    WAVE
                                AIR SEA DIR/SP/G            HT/PER
                 (UTC)          (F)     (DEG/KT/KT) (MB)    (FT/S)
PULASKI SHOAL LI NOT AVBL
SAND KEY         NOT AVBL
SOMBRERO KEY     NOT AVBL
LONG KEY         NOT AVBL
MOLASSES REEF    NOT AVBL
FOWEY ROCKS      NOT AVBL
Buoy 42080       NOT AVBL

$$


USA.gov is the U.S. government's official web portal to all federal, state and local government web resources and services.